CST,Max TemperatureF,Mean TemperatureF,Min TemperatureF,Max Dew PointF,MeanDew PointF,Min DewpointF,Max Humidity, Mean Humidity, Min Humidity, Max Sea Level PressureIn, Mean Sea Level PressureIn, Min Sea Level PressureIn, Max VisibilityMiles, Mean VisibilityMiles, Min VisibilityMiles, Max Wind SpeedMPH, Mean Wind SpeedMPH, Max Gust SpeedMPH,PrecipitationIn, CloudCover, Events, WindDirDegrees
2013-2-1,57,47,37,31,27,23,75,51,31,30.46,30.35,30.27,10,10,10,12,6,,0.00,0,,91
2013-2-2,69,52,36,48,39,28,83,63,45,30.30,30.23,30.18,10,10,10,16,9,,0.00,1,,253
2013-2-3,67,50,33,40,33,26,93,57,22,30.32,30.23,30.08,10,10,10,13,3,17,0.00,1,Rain,329
2013-2-4,59,52,44,55,49,35,100,84,63,30.08,29.96,29.88,10,10,5,13,7,,0.11,7,Rain-Thunderstorm,155
2013-2-5,62,55,47,57,54,48,100,96,76,30.06,29.99,29.92,10,5,0,5,2,,0.00,5,Fog-Rain,91
2013-2-6,59,52,46,58,54,46,100,99,91,30.13,30.05,29.97,10,6,0,10,5,,0.01,7,Fog,117
2013-2-7,63,58,53,59,56,53,100,94,75,29.99,29.94,29.90,10,6,0,12,4,,0.00,7,Fog,147
2013-2-8,63,56,46,59,49,37,100,79,47,30.22,30.12,29.95,10,10,6,17,9,18,0.00,5,,20
2013-2-9,55,47,39,48,42,36,93,79,70,30.22,30.11,29.95,10,10,8,10,7,,0.00,6,Rain,98
2013-2-10,70,64,56,63,52,36,100,76,29,30.01,29.86,29.78,10,8,1,17,10,20,1.59,6,Rain-Thunderstorm,262
2013-2-11,57,53,49,50,44,39,97,74,50,30.17,30.11,30.06,10,10,10,10,5,,0.14,6,Rain,79
2013-2-12,50,48,45,48,47,45,100,98,87,30.08,29.92,29.83,10,9,2,26,8,31,0.23,7,Rain-Thunderstorm,31
2013-2-13,49,42,36,45,38,34,96,79,61,30.13,30.05,29.91,10,10,10,21,11,18,0.00,5,,312
2013-2-14,64,46,29,37,32,28,100,67,26,30.17,30.10,30.05,10,10,6,8,3,,0.00,0,,165
2013-2-15,55,46,36,42,35,21,93,68,44,30.33,30.24,30.11,10,10,10,17,7,,0.01,4,Rain,349
2013-2-16,52,42,31,28,22,16,77,47,24,30.39,30.32,30.26,10,10,10,21,9,29,0.00,1,,337
2013-2-17,69,50,30,43,32,24,79,52,25,30.25,30.14,29.90,10,10,9,17,9,23,0.00,0,,178
2013-2-18,68,60,50,61,55,39,96,78,56,30.08,29.88,29.81,10,10,6,26,16,34,0.12,6,Rain-Thunderstorm,197
2013-2-19,61,50,39,38,30,24,73,50,23,30.33,30.24,30.10,10,10,10,10,7,,0.00,0,,23
2013-2-20,50,46,43,36,30,28,71,54,44,30.24,30.11,29.98,10,10,10,15,9,23,0.00,7,Rain,82
2013-2-21,62,53,44,61,44,28,100,80,50,29.96,29.80,29.63,10,9,2,18,11,25,0.17,7,Rain-Thunderstorm,107
2013-2-22,51,45,39,45,42,39,100,94,69,30.09,30.02,29.91,10,6,0,13,5,,0.00,7,Fog,8
2013-2-23,58,46,35,41,36,32,97,72,41,30.07,30.01,29.96,10,10,10,10,5,,0.00,0,,6
2013-2-24,66,50,34,39,36,34,99,58,32,30.02,29.91,29.75,10,10,10,12,5,,0.00,1,,113
2013-2-25,68,58,46,63,47,28,100,71,33,29.73,29.55,29.38,10,10,3,24,9,31,0.12,6,Rain-Thunderstorm,147
2013-2-26,56,50,39,34,32,30,79,56,40,29.93,29.74,29.57,10,10,8,25,17,34,0.00,5,,284
2013-2-27,60,46,32,37,30,23,95,55,25,30.12,30.03,29.92,10,10,10,18,7,28,0.00,0,,328
2013-2-28,57,46,35,28,25,22,69,47,26,30.24,30.17,30.12,10,10,10,16,11,22,0.00,0,,329